Flag Weather past 2 weeks in Breckenridge, Colorado, U.S.A.

Now
41 °F

Clear.


Feels Like: 32 °F
Forecast: 41 / 60 °F
Wind: 17 mph from South

Location: Copper Mountain - Red Cliff Pass

Current Time: Nov 1, 2014 at 12:20:03 AM

Latest Report: Oct 31, 2014 at 11:57 PM


Visibility: N/A

Pressure: 30.37 "Hg

Humidity: 42%

Dew point: 19 °F

Location of BreckenridgeLocation

Historic Weather in Breckenridge — Graph

°F

Breckenridge temperature yesterday

Maximum temperature yesterday: 52 °F (at 12:17 PM)
Minimum temperature yesterday: 37 °F (at 12:17 AM)
Average temperature yesterday: 44 °F

Past Weeks' High & Low Weather Summary

 TemperatureHumidityPressure
High59 °F (Oct 25, 11:17 AM)87% (Oct 21, 5:37 PM)30.66 "Hg (Oct 21, 5:37 PM)
Low19 °F (Oct 27, 7:29 PM)4% (Oct 25, 11:57 AM)30.05 "Hg (Oct 27, 3:37 AM)
Average39 °F46%30.43 "Hg
* Reported Oct 16 10:17 PM — Oct 31 10:37 PM, Breckenridge, Weather by CustomWeather, © 2014

Note: Actual official high and low records may vary slightly from our data, if they occured in-between our weather recording intervals... More about our weather records

Advertising

Breckenridge weather history for previous 24 hours

 ConditionsComfort  
Time TempWeatherWind HumidityBarometerVisibility
10:37 PM
Oct 31
41 °FClear.17 mph28%30.38 "HgN/A
10:17 PM41 °FClear.7 mph28%30.38 "HgN/A
9:57 PM39 °FClear.9 mph33%30.38 "HgN/A
9:37 PM37 °FClear.8 mph35%30.38 "HgN/A
9:17 PM37 °FClear.7 mph35%30.39 "HgN/A
8:57 PM41 °FClear.7 mph31%30.39 "HgN/A
8:37 PM39 °FClear.12 mph30%30.40 "HgN/A
8:17 PM41 °FClear.8 mph28%30.40 "HgN/A
7:57 PM41 °FClear.13 mph28%30.39 "HgN/A
7:37 PM41 °FClear.7 mph26%30.40 "HgN/A
7:17 PM41 °FClear.8 mph26%30.40 "HgN/A
6:57 PM41 °FSunny.13 mph26%30.40 "HgN/A
6:37 PM41 °FSunny.15 mph28%30.40 "HgN/A
6:17 PM41 °FSunny.12 mph28%30.41 "HgN/A
5:57 PM43 °FSunny.13 mph26%30.41 "HgN/A
5:37 PM45 °FSunny.10 mph21%30.41 "HgN/A
5:17 PM45 °FSunny.12 mph23%30.41 "HgN/A
4:57 PM45 °FSunny.13 mph21%30.41 "HgN/A
4:37 PM45 °FSunny.17 mph18%30.42 "HgN/A
4:17 PM45 °FSunny.15 mph16%30.42 "HgN/A
3:57 PM45 °FSunny.15 mph25%30.42 "HgN/A
3:37 PM45 °FSunny.17 mph23%30.42 "HgN/A
3:17 PM46 °FSunny.16 mph18%30.42 "HgN/A
2:57 PM52 °FSunny.14 mph13%30.42 "HgN/A
2:37 PM52 °FSunny.10 mph16%30.42 "HgN/A
2:17 PM50 °FSunny.12 mph16%30.42 "HgN/A
1:57 PM50 °FSunny.16 mph14%30.43 "HgN/A
1:37 PM50 °FSunny.12 mph13%30.44 "HgN/A
1:17 PM52 °FSunny.8 mph12%30.45 "HgN/A
12:57 PM52 °FSunny.21 mph13%30.47 "HgN/A
12:37 PM52 °FSunny.13 mph13%30.47 "HgN/A
12:17 PM52 °FSunny.18 mph15%30.48 "HgN/A
11:57 AM50 °FSunny.12 mph14%30.49 "HgN/A
11:37 AM50 °FSunny.16 mph16%30.50 "HgN/A
11:17 AM45 °FSunny.15 mph19%30.49 "HgN/A
10:57 AM45 °FSunny.13 mph19%30.50 "HgN/A
10:37 AM45 °FSunny.16 mph18%30.50 "HgN/A
10:17 AM46 °FSunny.7 mph17%30.51 "HgN/A
9:57 AM46 °FSunny.12 mph15%30.51 "HgN/A
9:37 AM45 °FSunny.10 mph15%30.51 "HgN/A
9:17 AM45 °FSunny.12 mph14%30.51 "HgN/A
8:57 AM45 °FSunny.10 mph12%30.51 "HgN/A
8:37 AM45 °FSunny.13 mph12%30.51 "HgN/A
8:17 AM45 °FClear.12 mph11%30.50 "HgN/A
7:57 AM45 °FClear.12 mph11%30.50 "HgN/A
7:37 AM45 °FClear.10 mph11%30.50 "HgN/A
6:57 AM43 °FClear.9 mph13%30.51 "HgN/A
6:37 AM43 °FClear.6 mph13%30.51 "HgN/A
5:57 AM45 °FClear.10 mph12%30.51 "HgN/A
5:37 AM45 °FClear.12 mph11%30.51 "HgN/A
5:17 AM45 °FClear.9 mph11%30.51 "HgN/A
4:57 AM45 °FClear.10 mph11%30.51 "HgN/A
4:37 AM45 °FClear.12 mph10%30.51 "HgN/A
4:17 AM43 °FClear.15 mph10%30.51 "HgN/A
3:57 AM41 °FClear.20 mph12%30.51 "HgN/A
3:37 AM41 °FClear.16 mph14%30.52 "HgN/A
3:17 AM41 °FClear.20 mph14%30.52 "HgN/A
2:57 AM41 °FClear.21 mph16%30.53 "HgN/A
2:37 AM41 °FClear.21 mph17%30.53 "HgN/A
2:17 AM41 °FClear.20 mph19%30.54 "HgN/A
1:57 AM37 °FClear.20 mph23%30.54 "HgN/A
1:37 AM37 °FClear.20 mph28%30.55 "HgN/A
1:17 AM37 °FClear.18 mph30%30.55 "HgN/A
12:57 AM37 °FClear.21 mph30%30.56 "HgN/A
12:38 AM37 °FClear.17 mph33%30.56 "HgN/A
12:17 AM37 °FClear.22 mph33%30.57 "HgN/A
Weather by CustomWeather, © 2014

See weather overviewHow to use our weather pages